This is the latest recevied weather packets stored in our database for station/object IA5FYI-13. If no packets are shown the sender has not sent any weather packets the latest 10 day(s).
| Time | Temp. | Humidity | Pressure | Rain* | Wind** | Luminosity | Snow |
|---|---|---|---|---|---|---|---|
| 1777748708 | 16.11° C | 70% | 1020 hPa | 0 mm | - | - | - |
| 1777748431 | 16.11° C | 70% | 1020 hPa | 0 mm | - | - | - |
| 1777748108 | 16.11° C | 69% | 1020 hPa | 0 mm | - | - | - |
| 1777747511 | 17.22° C | 67% | 1020 hPa | 0 mm | - | - | - |
| 1777746622 | 17.22° C | 67% | 1019.6 hPa | 0 mm | - | - | - |
| 1777746309 | 17.22° C | 66% | 1019.6 hPa | 0 mm | - | - | - |
| 1777746012 | 17.22° C | 66% | 1019.6 hPa | 0 mm | - | - | - |
| 1777745711 | 17.78° C | 65% | 1019.6 hPa | 0 mm | - | - | - |
| 1777745412 | 17.78° C | 65% | 1019.6 hPa | 0 mm | - | - | - |
| 1777744830 | 17.78° C | 62% | 1019.6 hPa | 0 mm | - | - | - |
| 1777743309 | 18.89° C | 56% | 1019.6 hPa | 0 mm | - | - | - |
| 1777742412 | 18.89° C | 58% | 1019.6 hPa | 0 mm | - | - | - |
| 1777742113 | 18.89° C | 58% | 1019.3 hPa | 0 mm | - | - | - |
| 1777741812 | 18.89° C | 58% | 1019.6 hPa | 0 mm | - | - | - |
| 1777741230 | 18.89° C | 57% | 1019.6 hPa | 0 mm | - | - | - |
| 1777739709 | 18.89° C | 54% | 1020 hPa | 0 mm | - | - | - |
| 1777739109 | 20° C | 52% | 1020 hPa | 0 mm | - | - | - |
| 1777738812 | 20° C | 51% | 1020 hPa | 0 mm | - | - | - |
| 1777738212 | 20° C | 50% | 1020 hPa | 0 mm | - | - | - |
| 1777737908 | 20° C | 50% | 1020.3 hPa | 0 mm | - | - | - |
| 1777737309 | 20° C | 51% | 1020 hPa | 0 mm | - | - | - |
| 1777737012 | 20° C | 50% | 1020 hPa | 0 mm | - | - | - |
| 1777736712 | 20° C | 51% | 1020.3 hPa | 0 mm | - | - | - |
| 1777736413 | 20° C | 50% | 1020 hPa | 0 mm | - | - | - |
| 1777736109 | 20° C | 51% | 1020 hPa | 0 mm | - | - | - |
* Rain latest hour (hover to see other rain measurements)
** Current wind speed in m/s (hover to see current wind gust speed)